DW6378 Weather Reports


time (UTC)temp
F
wind
direction
speed
knots
gust
knots
rain 1hr
in
rain 24hr
in
rain mn
in
humidity
%
barometer
mb
20260504204458 68 293 4.3 9.6 0.00 0.00 0.00 38 1008.2
20260504202959 68 200 5.2 11.3 0.00 0.00 0.00 38 1008.5
20260504195959 67 267 4.3 7.0 0.00 0.00 0.00 39 1008.8
20260504193000 66 232 4.3 9.6 0.00 0.00 0.00 39 1009.2
20260504191459 66 281 4.3 11.3 0.00 0.00 0.00 39 1009.2
20260504190002 67 128 6.1 13.9 0.00 0.00 0.00 38 1009.3
20260504184459 66 222 5.2 9.6 0.00 0.00 0.00 40 1009.5
20260504182959 66 276 5.2 13.0 0.00 0.00 0.00 39 1009.6
20260504181459 65 305 4.3 12.2 0.00 0.00 0.00 39 1009.7
20260504180001 66 255 4.3 10.4 0.00 0.00 0.00 41 1009.8
20260504174500 64 208 3.5 10.4 0.00 0.00 0.00 41 1009.9
20260504172959 63 222 5.2 11.3 0.00 0.00 0.00 41 1010.0
20260504171459 63 262 4.3 10.4 0.00 0.00 0.00 41 1010.1
20260504081459 39 143 0.9 0.9 0.00 0.00 0.00 65 1012.5
20260504045958 42 162 0.0 1.7 0.00 0.00 0.00 60 1012.4
20260504044459 43 273 0.9 3.5 0.00 0.00 0.00 58 1012.3
20260504042959 44 284 1.7 2.6 0.00 0.00 0.00 56 1012.1
20260504041459 45 249 1.7 5.2 0.00 0.00 0.00 55 1012.1
20260504034458 44 291 0.9 3.5 0.00 0.00 0.00 56 1011.9
20260504032959 44 215 1.7 4.3 0.00 0.00 0.00 56 1011.8
20260504031459 44 252 0.9 4.3 0.00 0.00 0.00 56 1011.9
20260504025959 44 249 0.9 2.6 0.00 0.00 0.00 56 1011.9
20260504024458 44 212 0.9 4.3 0.00 0.00 0.00 57 1011.9
20260504022958 43 267 0.9 4.3 0.00 0.00 0.00 57 1012.0
20260504021458 43 252 0.9 1.7 0.00 0.00 0.00 56 1011.8
20260504015958 44 222 0.9 2.6 0.00 0.00 0.00 55 1011.9
20260504014457 44 238 0.9 1.7 0.00 0.00 0.00 54 1011.9
20260504012958 45 243 0.9 0.9 0.00 0.00 0.00 52 1011.7
20260504011459 45 249 0.9 1.7 0.00 0.00 0.00 50 1011.5
20260504010000 46 246 0.9 2.6 0.00 0.00 0.00 48 1011.4
20260504004500 47 262 0.9 2.6 0.00 0.00 0.00 46 1011.4
20260504002958 48 255 1.7 4.3 0.00 0.00 0.00 45 1011.3
20260504001500 48 264 1.7 3.5 0.00 0.00 0.00 44 1011.1
20260503235959 49 283 1.7 3.5 0.00 0.00 0.00 44 1010.9
20260503232958 50 266 2.6 5.2 0.00 0.00 0.00 43 1010.6
20260503224458 51 257 3.5 7.0 0.00 0.00 0.00 40 1010.5
20260503222958 52 232 4.3 8.7 0.00 0.00 0.00 39 1010.5
20260503215959 52 303 3.5 9.6 0.00 0.00 0.00 40 1010.4
20260503214458 52 300 4.3 11.3 0.00 0.00 0.00 38 1010.3
20260503212959 52 270 2.6 7.8 0.00 0.00 0.00 39 1010.2
20260503211458 52 264 3.5 12.2 0.00 0.00 0.00 38 1010.1